TimeCDT,TemperatureF,Dew PointF,Humidity,Sea Level PressureIn,VisibilityMPH,Wind Direction,Wind SpeedMPH,Gust SpeedMPH,PrecipitationIn,Events,Conditions,WindDirDegrees,DateUTC
12:15 AM,73.4,60.8,65,29.98,10.0,NE,19.6,-,N/A,,Unknown,40,2013-07-30 05:15:00
12:35 AM,73.4,59.0,61,30.01,10.0,NE,13.8,-,N/A,,Unknown,50,2013-07-30 05:35:00
12:55 AM,73.4,60.8,65,30.01,10.0,NE,10.4,-,N/A,Thunderstorm,Unknown,50,2013-07-30 05:55:00
1:15 AM,71.6,60.8,69,30.07,10.0,WNW,9.2,38.0,N/A,Thunderstorm,Unknown,300,2013-07-30 06:15:00
1:35 AM,71.6,60.8,69,30.05,7.0,WNW,3.5,24.2,0.02,Rain-Thunderstorm,Light Thunderstorms and Rain,300,2013-07-30 06:35:00
1:55 AM,68.0,62.6,83,30.03,3.0,SW,12.7,16.1,0.23,Rain-Thunderstorm,Thunderstorms and Rain,220,2013-07-30 06:55:00
2:15 AM,68.0,62.6,83,30.04,5.0,SSE,8.1,-,0.07,Rain-Thunderstorm,Rain,160,2013-07-30 07:15:00
2:35 AM,69.8,62.6,78,30.01,7.0,South,8.1,16.1,0.10,Rain-Thunderstorm,Thunderstorms and Rain,180,2013-07-30 07:35:00
2:55 AM,68.0,62.6,83,29.96,10.0,SSE,21.9,-,0.12,Rain-Thunderstorm,Light Thunderstorms and Rain,160,2013-07-30 07:55:00
3:15 AM,69.8,64.4,83,29.97,10.0,South,10.4,23.0,N/A,Rain-Thunderstorm,Light Thunderstorms and Rain,170,2013-07-30 08:15:00
3:35 AM,69.8,64.4,83,30.00,10.0,SSW,11.5,20.7,0.01,Rain,Light Rain,200,2013-07-30 08:35:00
3:55 AM,69.8,64.4,83,30.01,10.0,South,10.4,-,0.02,Rain,Light Rain,190,2013-07-30 08:55:00
4:15 AM,69.8,64.4,83,30.00,10.0,SSE,11.5,-,N/A,Rain-Thunderstorm,Rain,160,2013-07-30 09:15:00
4:35 AM,69.8,64.4,83,30.00,10.0,SSW,10.4,18.4,0.01,Rain,Light Rain,200,2013-07-30 09:35:00
4:55 AM,69.8,64.4,83,30.00,10.0,South,11.5,-,0.03,Rain,Light Rain,190,2013-07-30 09:55:00
5:15 AM,71.6,64.4,78,30.00,10.0,South,16.1,-,N/A,,Unknown,170,2013-07-30 10:15:00
5:35 AM,71.6,64.4,78,29.98,10.0,SSE,10.4,-,N/A,,Unknown,160,2013-07-30 10:35:00
5:55 AM,69.8,64.4,83,30.00,10.0,SSW,8.1,-,N/A,,Unknown,200,2013-07-30 10:55:00
6:15 AM,71.6,64.4,78,29.99,10.0,SE,4.6,-,N/A,,Unknown,130,2013-07-30 11:15:00
6:35 AM,69.8,64.4,83,30.02,10.0,WSW,9.2,-,N/A,,Unknown,240,2013-07-30 11:35:00
6:55 AM,69.8,64.4,83,30.03,10.0,WNW,5.8,-,N/A,,Unknown,300,2013-07-30 11:55:00
7:15 AM,71.6,62.6,73,30.03,10.0,Calm,Calm,-,N/A,,Unknown,0,2013-07-30 12:15:00
7:35 AM,71.6,64.4,78,30.03,10.0,ESE,5.8,-,N/A,,Unknown,120,2013-07-30 12:35:00
7:55 AM,71.6,64.4,78,30.03,10.0,Calm,Calm,-,N/A,,Unknown,0,2013-07-30 12:55:00
8:15 AM,73.4,64.4,73,30.03,10.0,Calm,Calm,-,N/A,,Unknown,0,2013-07-30 13:15:00
8:35 AM,75.2,66.2,73,30.03,10.0,SE,4.6,-,N/A,,Unknown,140,2013-07-30 13:35:00
8:55 AM,77.0,64.4,65,30.03,10.0,SE,3.5,-,N/A,,Unknown,130,2013-07-30 13:55:00
9:15 AM,78.8,64.4,61,30.06,10.0,West,4.6,-,N/A,,Unknown,260,2013-07-30 14:15:00
9:35 AM,78.8,66.2,65,30.07,10.0,West,5.8,-,N/A,,Unknown,280,2013-07-30 14:35:00
9:55 AM,80.6,64.4,58,30.06,10.0,WNW,6.9,-,N/A,,Unknown,300,2013-07-30 14:55:00
10:15 AM,82.4,64.4,54,30.06,10.0,NNW,9.2,-,N/A,,Unknown,330,2013-07-30 15:15:00
10:35 AM,80.6,64.4,58,30.06,10.0,NNW,10.4,-,N/A,,Unknown,340,2013-07-30 15:35:00
10:55 AM,80.6,64.4,58,30.06,10.0,North,8.1,-,N/A,,Unknown,360,2013-07-30 15:55:00
11:15 AM,82.4,66.2,58,30.07,10.0,North,10.4,-,N/A,,Unknown,350,2013-07-30 16:15:00
11:55 AM,82.4,66.2,58,30.08,10.0,NNW,5.8,-,N/A,,Unknown,340,2013-07-30 16:55:00
12:15 PM,82.4,66.2,58,30.08,10.0,North,9.2,-,N/A,,Unknown,360,2013-07-30 17:15:00
12:35 PM,82.4,64.4,54,30.07,10.0,North,6.9,-,N/A,,Unknown,360,2013-07-30 17:35:00
12:55 PM,84.2,66.2,55,30.07,10.0,NNW,9.2,-,N/A,,Unknown,330,2013-07-30 17:55:00
1:15 PM,86.0,66.2,51,30.07,10.0,North,9.2,-,N/A,,Unknown,360,2013-07-30 18:15:00
1:35 PM,84.2,66.2,55,30.06,10.0,NNW,6.9,-,N/A,,Unknown,340,2013-07-30 18:35:00
1:55 PM,86.0,66.2,51,30.06,10.0,NNW,8.1,-,N/A,,Unknown,340,2013-07-30 18:55:00
2:15 PM,86.0,66.2,51,30.05,10.0,North,6.9,-,N/A,,Unknown,360,2013-07-30 19:15:00
2:35 PM,86.0,66.2,51,30.06,10.0,North,8.1,16.1,N/A,,Unknown,360,2013-07-30 19:35:00
2:55 PM,86.0,66.2,51,30.05,10.0,NNW,9.2,-,N/A,,Unknown,340,2013-07-30 19:55:00
3:15 PM,86.0,68.0,55,30.05,10.0,NNW,12.7,-,N/A,,Unknown,340,2013-07-30 20:15:00
3:35 PM,86.0,68.0,55,30.05,10.0,NNW,10.4,-,N/A,,Unknown,330,2013-07-30 20:35:00
3:55 PM,87.8,68.0,52,30.05,10.0,NNW,10.4,-,N/A,,Unknown,340,2013-07-30 20:55:00
4:15 PM,87.8,68.0,52,30.05,10.0,NW,8.1,-,N/A,,Unknown,320,2013-07-30 21:15:00
4:35 PM,86.0,66.2,51,30.05,10.0,North,5.8,-,N/A,,Unknown,350,2013-07-30 21:35:00
4:55 PM,86.0,66.2,51,30.05,10.0,NW,5.8,-,N/A,,Unknown,320,2013-07-30 21:55:00
5:15 PM,87.8,66.2,49,30.05,10.0,North,6.9,-,N/A,,Unknown,350,2013-07-30 22:15:00
5:35 PM,86.0,68.0,55,30.05,10.0,NNE,8.1,-,N/A,,Unknown,20,2013-07-30 22:35:00
5:55 PM,86.0,68.0,55,30.05,10.0,NNW,6.9,-,N/A,,Unknown,340,2013-07-30 22:55:00
6:15 PM,86.0,68.0,55,30.04,10.0,North,10.4,-,N/A,,Unknown,360,2013-07-30 23:15:00
6:35 PM,86.0,68.0,55,30.04,10.0,North,8.1,-,N/A,,Unknown,10,2013-07-30 23:35:00
6:55 PM,86.0,68.0,55,30.04,10.0,North,6.9,-,N/A,,Unknown,360,2013-07-30 23:55:00
7:15 PM,84.2,68.0,58,30.04,10.0,NNE,9.2,-,N/A,,Unknown,30,2013-07-31 00:15:00
7:35 PM,82.4,68.0,62,30.04,10.0,NNE,9.2,-,N/A,,Unknown,20,2013-07-31 00:35:00
7:55 PM,82.4,68.0,62,30.04,10.0,North,8.1,-,N/A,,Unknown,10,2013-07-31 00:55:00
8:15 PM,82.4,68.0,62,30.05,10.0,NNE,6.9,-,N/A,,Unknown,20,2013-07-31 01:15:00
8:35 PM,80.6,68.0,65,30.05,10.0,North,10.4,-,N/A,,Unknown,10,2013-07-31 01:35:00
8:55 PM,78.8,68.0,69,30.06,10.0,North,6.9,-,N/A,,Unknown,10,2013-07-31 01:55:00
9:15 PM,78.8,68.0,69,30.06,10.0,North,6.9,-,N/A,,Unknown,10,2013-07-31 02:15:00
9:35 PM,77.0,68.0,74,30.07,10.0,NNE,4.6,-,N/A,,Unknown,20,2013-07-31 02:35:00
9:55 PM,77.0,68.0,74,30.08,10.0,ENE,5.8,-,N/A,,Unknown,60,2013-07-31 02:55:00
10:15 PM,77.0,68.0,74,30.09,10.0,ENE,5.8,-,N/A,,Unknown,60,2013-07-31 03:15:00
10:35 PM,77.0,69.8,78,30.10,10.0,ENE,5.8,-,N/A,,Unknown,70,2013-07-31 03:35:00
10:55 PM,75.2,69.8,83,30.10,10.0,ENE,4.6,-,N/A,,Unknown,70,2013-07-31 03:55:00
11:15 PM,75.2,69.8,83,30.09,10.0,NE,4.6,-,N/A,,Unknown,50,2013-07-31 04:15:00
11:35 PM,73.4,69.8,88,30.09,10.0,NE,5.8,-,N/A,,Unknown,50,2013-07-31 04:35:00
11:55 PM,73.4,69.8,88,30.10,10.0,North,4.6,-,N/A,,Unknown,360,2013-07-31 04:55:00